Location: W�rzburg
(49.7529°N, 9.8822°E)
Time: 20:07:58
(UTC+01:00)

ISS - Pass Details

Date: 10 January 2018
Orbit: 401 x 407 km, 51.6° (Epoch: 17 January)

Event Time Altitude Azimuth Distance (km) Brightness Sun altitude
Exits shadow 04:59:44 12° 82° (E) 1,326 -0.4 -30.7°
Drops below altitude 10° 05:00:00 11° 83° (E) 1,435 -0.2 -30.6°
Sets 05:02:11 0° 87° (E) 2,327 1.2 -30.3°
